Regional Weather Roundup
Issued by NWS New Orleans/Baton Rouge, LA

Home | Current Version | Previous Version | Graphics & Text | Print | Product List | Glossary On
Versions: 1 2 3 4 5 6 7 8 9 10 11 12 13 14 15 16 17 18 19 20 21 22 23 24 25 26 27 28 29 30 31 32 33 34 35 36 37 38 39 40 41 42 43 44 45 46 47 48 49 50
258
ASUS44 KLIX 281001
RWRLIX
NEW ORLEANS REGIONAL WEATHER ROUNDUP
NATIONAL WEATHER SERVICE NEW ORLEANS LA
500 AM CDT THU AUG 28 2014

NOTE: "FAIR" INDICATES FEW OR NO CLOUDS BELOW 12,000 FEET WITH NO
      SIGNIFICANT WEATHER AND/OR OBSTRUCTIONS TO VISIBILITY.
      SKY/WX - SKY CONDITION AND SIGNIFICANT WEATHER.
      TMP - AIR TEMPERATURE.     DP    - DEWPOINT TEMPERATURE.
      RH  - RELATIVE HUMIDITY.   PRES  - PRESSURE.
      HI  - HEAT INDEX.          WCI   - WIND CHILL INDEX.

*  THESE STATIONS ARE NOT NWS OR FAA STATIONS AND ARE NOT UNDER
   NWS QUALITY CONTROL.

LAZ038-040-048-061>063-065>067-069-281100-
SOUTHEAST LOUISIANA

CITY           SKY/WX    TMP DP  RH WIND       PRES   REMARKS
N.O. AUDUBON     N/A     81  76  84 MISG        N/A
N.O. INTL ARPT MOCLDY    79  74  84 E3        29.96S
N.O. LAKEFRONT PTCLDY    81  75  82 E3        29.97S
N.O. DOWNTOWN* PTSUNNY   82  72  69 CALM      29.97S
SLIDELL        CLOUDY    76  73  91 N3        29.97S
BATON ROUGE    MOCLDY    76  74  93 CALM      29.97S
BOOTHVILLE     PTCLDY    82  77  84 CALM      29.96S
BELLE CHASSE   MOCLDY    75  72  90 CALM      29.96S
BOGALUSA*        N/A     75  72  88 CALM      30.00S
GALLIANO*      NOT AVBL
NEW ROADS*       N/A     75  74  98 CALM      29.97S FOG
GONZALES*        N/A     76  76 100 CALM      29.96F
HAMMOND*       NOT AVBL
HOUMA*         CLOUDY    77  73  90 CALM      29.96S
PORT FOURCHON* MOSUNNY   84  72  65 E8        29.96F

$$

MSZ070-080>082-281100-
SOUTHERN MISSISSIPPI

CITY           SKY/WX    TMP DP  RH WIND       PRES   REMARKS
MCCOMB         PTCLDY    74  71  91 CALM      29.99S
GULFPORT       MOCLDY    78  72  81 CALM      29.97S
BILOXI         CLOUDY    77  73  87 NE6       29.98R
PASCAGOULA     MOCLDY    73  72  96 N3        29.98S

$$

COASTAL OBSERVATIONS
LAKE AND NEARSHORE STATIONS

STATION/POSITION TIME  TEMP    WIND        PRES    WAVE
                       AIR SEA DIR/SP/G            HT/PER
                 (UTC) (F)     (DEG/KT/KT) (MB)    (FT/S)
PASCAGOULA       0900   78      10/  4/  5 1014.5
WAVELAND YACHT   0900   80     360/  3/  4 1014.3
GRAND ISLE       0900   83 83  130/  5/  7 1014.9
SOUTHWEST PASS   0900   84 88  110/ 12/ 13 1014.5
NEW CANAL        0900   80 84   80/  2/  3 1015.2
SHELL BEACH      0900   82 81  110/  2/  3 1014.5

OFFSHORE STATIONS

STATION/POSITION TIME  TEMP    WIND        PRES    WAVE
                       AIR SEA DIR/SP/G            HT/PER
                 (UTC) (F)     (DEG/KT/KT) (MB)    (FT/S)
64 S DAUPHIN ISL 0853   84 85   90/  8/ 10 1014.7

$$




USA.gov is the U.S. government's official web portal to all federal, state and local government web resources and services.